Temperature
8 8 8 8 8 8 8 8 8 8 8 8 8 8 8 8 7 7 7 7 7 7 7 7 7 7 8 8 8 8 8 8 8 8 8 8 8 8 8 8 8 8 8
7 8 8 8 8 8 8 8 7 8 7 7 7 7 7 7 7 7 7 7 7 6 7 7 7 7 7 7 7 7 7 7 7 6 6 6 7 7 7 7 7 7 7
7 7 7 7 7 7 7 7 7 7 7 7 7 7 7 6 6 6 6 6 6 6 6 6 6 6 6 6 7 6 6 6 6 6 5 5 5 5 6 6 6 6 6
6 6 6 6 6 6 6 6 6 6 6 6 6 6 6 6 6 6 5 5 5 5 5 5 5 6 6 6 6 6 6 6 5 5 5 5 5 4 4 5 5 6 6
6 6 6 6 6 6 6 6 6 6 6 6 5 5 5 5 5 5 5 5 5 5 5 5 5 5 5 5 5 5 5 5 5 5 4 4 4 4 4 4 4 5 5
5 5 5 5 5 5 5 5 5 5 5 5 5 5 5 4 4 4 4 4 4 4 4 4 4 4 4 5 5 5 4 4 4 4 4 4 4 4 3 3 3 4 4
5 5 5 5 5 5 4 4 4 4 4 4 4 4 4 4 4 4 4 4 4 4 4 4 4 4 4 4 4 4 4 4 4 4 4 4 3 3 3 3 3 3 3
5 4 4 4 4 4 4 4 4 4 4 4 4 4 4 4 3 3 3 3 3 3 3 3 3 3 3 3 3 3 3 3 3 3 3 3 3 3 3 2 2 2 2
4 4 4 4 4 4 3 3 3 3 3 3 3 3 3 3 3 3 3 2 2 2 2 3 3 3 3 3 3 3 3 3 3 3 3 3 3 2 2 2 2 2 1
4 4 4 4 3 3 3 3 3 3 3 3 3 2 2 2 2 2 2 2 2 2 2 2 2 2 2 2 2 2 2 2 2 2 2 2 2 2 2 2 2 2 1
4 3 3 3 3 3 3 2 2 2 2 2 2 2 2 2 2 2 2 2 2 1 1 2 2 2 2 2 2 2 2 2 2 2 2 2 2 2 2 2 1 1 1
3 3 3 3 3 2 2 2 2 2 2 2 2 1 1 1 1 1 1 1 1 1 1 1 1 1 1 1 1 1 1 1 1 1 1 1 1 1 1 1 1 1 1
3 3 2 2 2 2 2 2 2 2 1 1 1 1 1 1 1 1 1 1 1 1 1 1 1 1 1 1 1 1 1 1 1 1 1 1 1 1 1 1 1 1 1
2 2 2 2 2 2 1 1 1 1 1 1 1 1 0 0 0 0 0 0 0 0 0 0 0 0 0 0 0 0 0 0 0 0 0 0 0 0 0 0 0 0 0
2 2 1 1 1 1 1 1 1 1 0 0 0 -0 -0 -0 -0 -0 -0 -0 -0 -0 -0 -0 -0 -0 -0 -1 -1 -0 -0 -0 -0 -0 -0 -0 -0 -0 -0 -0 -0 -0 -0
1 1 1 1 1 1 1 0 0 0 -0 -0 -0 -0 -1 -1 -1 -1 -1 -1 -1 -1 -1 -1 -1 -1 -1 -1 -1 -1 -1 -1 -1 -1 -1 -1 -1 -1 -1 -1 -1 -1 -1
1 1 1 1 1 0 0 -0 -0 -0 -0 -1 -1 -1 -1 -1 -1 -1 -1 -1 -1 -1 -1 -1 -1 -1 -1 -1 -1 -1 -1 -1 -1 -1 -1 -1 -1 -1 -1 -1 -1 -1 -1
1 0 0 0 0 0 -0 -0 -1 -1 -1 -1 -1 -1 -1 -1 -2 -1 -2 -2 -2 -2 -2 -2 -2 -2 -2 -2 -2 -2 -2 -2 -2 -2 -2 -2 -1 -1 -1 -1 -1 -1 -1
1 0 0 0 -0 -0 -0 -1 -1 -1 -1 -1 -2 -2 -2 -2 -2 -2 -2 -2 -2 -2 -2 -2 -2 -2 -2 -2 -2 -2 -2 -2 -2 -2 -2 -2 -2 -2 -2 -2 -2 -2 -2
0 0 -0 -0 -1 -1 -1 -1 -1 -1 -2 -2 -2 -2 -2 -2 -2 -2 -2 -3 -3 -3 -3 -3 -3 -3 -3 -3 -3 -3 -3 -3 -3 -3 -3 -3 -3 -3 -2 -2 -2 -2 -2
-0 -0 -1 -1 -1 -1 -1 -1 -2 -2 -2 -2 -2 -2 -3 -3 -3 -3 -3 -3 -3 -3 -3 -3 -3 -3 -3 -3 -3 -3 -3 -3 -3 -3 -3 -3 -3 -3 -3 -3 -3 -3 -3
-1 -1 -1 -1 -1 -1 -2 -2 -2 -2 -2 -2 -3 -3 -3 -3 -3 -3 -3 -3 -4 -4 -4 -4 -4 -4 -4 -4 -4 -4 -4 -4 -4 -4 -4 -4 -4 -4 -3 -3 -3 -3 -3
-1 -1 -2 -1 -2 -2 -2 -2 -2 -3 -3 -3 -3 -3 -3 -3 -4 -4 -4 -4 -4 -4 -4 -4 -4 -4 -4 -4 -4 -4 -4 -4 -4 -4 -4 -4 -4 -4 -4 -3 -3 -3 -3
-2 -2 -2 -2 -2 -2 -2 -2 -3 -3 -3 -3 -3 -3 -4 -4 -4 -4 -4 -4 -4 -5 -5 -5 -5 -5 -4 -4 -4 -5 -5 -4 -4 -4 -4 -4 -4 -4 -4 -4 -4 -3 -3
-2 -2 -2 -2 -2 -2 -3 -3 -3 -3 -3 -3 -3 -4 -4 -4 -4 -4 -5 -5 -5 -5 -5 -5 -5 -5 -5 -5 -5 -5 -5 -5 -5 -5 -4 -4 -4 -4 -4 -4 -4 -4 -4
-2 -3 -3 -3 -3 -3 -3 -3 -3 -4 -4 -4 -4 -4 -4 -4 -4 -5 -5 -5 -5 -5 -5 -5 -5 -5 -5 -5 -5 -5 -5 -5 -5 -5 -5 -4 -4 -4 -4 -4 -4 -4 -4
Wind_Speed
3 2 2 2 2 2 3 2 2 1 2 1 1 1 1 2 1 1 2 2 2 2 1 1 2 2 2 2 2 1 2 1 1 1 3 4 3 3 3 3 3 3 4
1 1 1 1 2 2 2 2 2 2 2 2 2 2 1 1 2 1 1 2 2 2 2 1 2 2 2 2 2 1 1 1 0 0 1 2 3 2 3 2 2 3 3
5 3 1 1 1 1 2 2 2 2 2 2 1 1 1 1 1 1 1 2 2 2 2 2 2 2 2 3 3 3 3 2 2 1 1 1 3 3 3 3 2 3 3
3 2 1 1 1 2 2 2 2 2 2 2 2 2 2 2 2 2 2 2 2 2 2 2 2 2 2 3 3 3 2 3 3 2 2 2 2 2 3 3 3 3 4
3 2 2 2 2 1 1 1 1 2 2 2 3 3 2 2 2 2 2 2 2 3 3 3 2 2 3 3 3 3 3 3 3 3 2 2 2 3 3 5 4 3 3
2 2 1 0 0 1 1 1 0 1 2 2 3 3 3 2 2 2 2 3 2 2 3 3 2 2 2 3 4 4 4 4 4 3 2 2 2 2 3 4 5 5 4
3 2 2 1 1 1 1 1 1 1 2 2 2 3 3 3 4 3 3 3 2 2 3 3 2 3 3 3 3 3 4 4 4 4 3 3 3 3 3 4 5 5 4
3 3 3 2 2 2 2 1 1 2 2 2 2 3 3 3 3 3 3 3 3 3 3 3 3 3 3 3 3 3 4 4 4 4 4 3 3 3 3 3 3 5 5
3 3 3 3 3 3 3 3 2 2 2 2 2 2 2 3 3 3 2 3 3 3 3 3 3 3 3 3 3 3 4 4 4 4 4 4 3 3 3 3 4 4 5
3 3 3 3 3 3 2 2 2 3 2 2 2 2 2 2 2 2 2 2 3 2 3 3 3 3 3 3 3 3 3 3 3 3 4 4 3 3 3 3 4 4 5
5 4 4 3 2 1 1 1 2 2 2 2 2 2 2 1 1 2 2 2 2 2 3 3 3 3 3 3 3 3 3 3 4 4 4 4 4 3 3 3 4 4 4
4 3 3 2 2 2 2 2 2 2 2 1 1 1 1 1 1 2 2 2 2 2 3 3 3 3 3 2 3 3 3 3 4 4 4 5 4 4 3 3 4 4 4
3 2 2 2 3 2 2 2 2 2 2 1 1 1 1 1 2 2 2 2 2 2 2 2 2 3 3 2 3 3 3 4 4 4 4 4 4 4 4 4 4 4 4
3 2 2 2 2 2 2 2 2 2 1 1 1 1 2 2 2 2 1 1 2 2 2 2 2 2 3 3 3 3 3 3 4 4 4 4 4 4 4 4 4 3 3
3 3 3 3 2 2 2 2 2 2 1 1 1 2 2 2 1 1 1 1 1 2 2 2 2 3 2 3 3 3 3 3 3 3 3 3 5 5 5 4 3 4 4
5 3 3 3 3 3 3 2 2 2 1 1 1 2 2 2 2 1 1 1 1 2 2 2 2 3 3 4 5 3 2 2 3 3 3 4 5 6 6 7 6 5 5
4 4 4 4 4 3 3 3 3 2 1 1 1 1 2 2 2 2 1 2 2 2 2 2 2 3 4 5 5 4 3 2 2 3 3 4 4 5 4 5 7 6 6
4 5 4 4 3 3 3 2 2 1 1 1 1 1 2 2 2 1 1 2 1 1 2 2 3 3 4 5 5 5 3 2 3 3 3 4 4 4 4 3 4 4 5
5 5 5 4 3 3 3 2 2 1 1 2 2 2 2 2 1 1 1 1 1 1 2 2 2 3 4 5 5 4 2 2 3 4 3 4 4 6 5 3 3 4 4
3 3 3 2 2 2 2 2 2 2 2 2 2 2 1 1 1 1 1 1 1 1 2 2 2 3 3 5 5 4 1 2 3 3 4 6 5 6 5 3 3 4 4
3 2 2 2 3 2 2 3 3 3 3 2 1 1 1 1 1 1 1 1 1 1 2 2 3 2 3 4 5 5 2 2 3 3 3 4 6 7 6 4 3 4 4
3 2 2 2 2 2 3 3 3 3 1 1 1 1 1 1 0 0 0 0 0 1 1 2 2 2 3 4 5 5 4 3 2 3 3 4 7 7 6 4 4 5 4
3 3 2 2 2 2 3 4 3 2 1 1 0 1 1 0 0 0 0 1 1 1 1 1 2 3 3 3 5 6 6 6 3 3 5 6 6 6 5 4 5 3 2
3 2 2 2 2 2 2 3 2 2 2 1 1 0 0 0 1 0 0 0 1 1 2 2 2 3 3 3 3 3 3 4 4 3 4 6 6 4 3 3 3 2 2
2 2 3 3 3 2 2 1 2 3 2 1 1 0 0 0 0 1 1 1 2 2 2 2 2 3 3 4 6 4 3 2 2 2 1 2 2 3 3 2 2 2 2
2 2 3 3 3 2 2 1 2 3 3 1 1 1 1 0 0 0 2 3 2 3 3 4 4 4 5 6 6 6 5 5 4 2 1 2 2 2 3 3 2 2 2
Wind_Direction
235 216 195 172 142 140 142 146 157 164 142 149 165 175 219 232 220 229 216 213 222 227 236 249 253 256 240 241 233 239 269 283 293 322 319 309 286 261 252 260 261 266 275
229 216 175 123 140 159 165 156 174 180 181 193 193 189 199 235 228 233 236 229 230 238 242 232 238 242 241 248 236 221 240 274 260 327 330 321 318 312 298 281 260 269 286
201 201 192 176 137 159 194 195 197 196 200 196 156 85 61 7 335 242 237 248 236 242 251 245 247 252 232 233 234 223 223 238 256 200 181 229 263 307 296 294 287 288 296
192 188 173 176 197 218 223 219 205 197 198 175 158 157 193 236 255 246 252 268 253 250 255 246 239 247 247 242 237 236 240 216 236 249 229 226 226 258 295 293 290 296 294
187 183 184 199 216 228 238 248 227 201 190 177 177 174 206 238 272 271 262 266 264 258 257 248 238 236 242 247 245 241 243 231 230 232 240 252 259 237 248 279 287 297 286
188 183 186 150 242 309 319 316 307 234 203 186 187 181 197 221 249 266 255 260 262 265 266 259 245 247 245 242 244 233 231 236 236 235 229 230 236 241 243 267 285 290 293
188 192 196 202 225 254 282 286 271 268 233 201 205 202 204 207 224 240 242 251 253 260 267 275 254 247 247 248 246 232 231 233 230 231 236 234 244 248 252 266 282 291 295
207 215 219 214 220 227 236 243 253 263 250 228 224 219 211 212 233 241 237 244 249 251 257 258 261 264 256 252 247 241 239 238 235 243 239 243 249 247 248 249 267 290 290
225 226 232 226 230 231 238 232 237 258 252 241 239 229 221 221 237 248 240 250 257 263 261 261 264 268 266 252 240 244 243 241 242 242 242 245 251 245 244 244 237 249 279
249 238 236 238 238 232 255 257 242 254 267 249 247 252 234 229 228 239 249 261 270 270 272 270 269 270 269 267 251 249 248 243 249 246 245 249 252 250 246 245 247 243 253
248 238 236 237 239 242 241 243 252 265 273 256 251 251 246 238 236 245 256 260 270 267 268 271 273 270 266 268 262 254 255 250 257 256 252 256 255 250 254 254 252 251 248
248 236 233 212 212 222 231 232 246 254 265 268 270 272 255 246 245 259 268 268 268 267 269 271 273 276 275 268 260 267 267 257 259 260 258 260 260 256 254 251 253 254 250
251 247 232 214 220 224 231 238 245 246 253 262 289 310 279 257 252 259 272 290 286 288 284 276 274 279 279 273 261 258 266 267 262 264 264 264 258 261 263 259 257 260 266
242 238 233 232 235 237 236 240 255 244 236 227 238 275 275 256 249 260 285 295 291 292 289 285 281 279 279 273 264 262 267 276 279 271 265 267 262 259 262 262 256 258 265
257 241 230 232 242 257 257 254 264 262 237 223 243 263 275 283 275 268 275 279 287 294 290 291 295 289 276 266 266 265 271 277 287 287 277 272 279 280 275 271 261 255 256
257 247 236 234 238 248 247 255 265 268 240 228 257 277 292 301 291 277 278 278 279 286 295 294 296 295 286 292 296 294 282 288 287 291 297 289 281 286 289 286 281 270 259
252 248 247 245 240 242 236 236 247 258 245 250 271 285 291 299 294 301 307 286 283 289 295 301 300 292 286 295 301 308 306 290 283 283 288 295 297 297 286 290 296 291 283
261 258 250 250 247 235 231 229 237 226 232 251 265 277 286 295 302 301 291 286 291 288 291 299 304 305 300 306 312 322 320 297 285 275 273 278 288 290 288 287 297 289 280
255 253 247 245 239 229 219 203 221 215 228 252 262 265 267 285 292 287 286 291 307 310 301 303 302 304 306 313 320 331 322 306 298 294 291 292 284 294 302 292 289 297 297
257 256 250 241 233 239 204 188 207 211 236 248 259 264 264 263 266 263 281 291 295 299 313 314 306 295 299 317 327 334 311 303 304 303 298 297 297 301 308 286 270 285 294
262 261 242 228 229 224 188 195 209 229 244 248 255 267 277 258 237 251 282 295 332 333 320 313 308 304 314 324 328 326 314 291 294 298 301 300 311 310 312 306 281 284 299
266 255 239 246 236 199 183 198 226 237 226 214 238 269 280 256 192 125 342 3 12 350 323 322 325 325 319 325 323 325 325 323 295 293 295 303 317 318 317 310 304 313 320
253 238 227 245 248 201 186 204 229 212 179 163 229 294 311 315 18 148 122 6 339 307 307 314 319 321 320 314 321 322 321 323 308 294 306 313 321 321 316 317 326 328 319
247 234 220 228 244 225 204 208 201 167 159 167 200 266 296 337 357 4 8 326 294 293 305 310 309 307 306 302 300 295 300 309 309 306 314 321 325 327 325 331 331 323 302
248 220 214 221 231 220 205 197 172 154 157 164 169 205 212 240 335 347 291 276 265 270 281 282 279 284 288 297 311 311 297 293 293 315 320 328 335 341 343 343 335 324 319
245 222 222 228 230 213 208 199 176 162 159 163 170 204 214 235 269 340 350 345 324 323 315 307 304 295 301 312 316 318 320 320 326 337 315 317 319 315 318 321 320 315 307
Height
1476 1477 1477 1477 1478 1478 1479 1479 1480 1480 1481 1481 1481 1482 1482 1482 1483 1483 1483 1483 1484 1484 1484 1484 1484 1484 1484 1484 1483 1483 1483 1483 1482 1482 1480 1480 1480 1479 1479 1479 1480 1480 1480
1473 1473 1474 1474 1474 1475 1476 1476 1477 1477 1477 1478 1478 1478 1478 1479 1479 1480 1480 1480 1480 1480 1480 1480 1480 1480 1480 1480 1480 1480 1479 1479 1479 1478 1477 1476 1476 1475 1475 1475 1475 1475 1475
1469 1469 1470 1471 1471 1472 1472 1473 1473 1474 1474 1475 1475 1475 1476 1475 1475 1475 1476 1476 1476 1476 1476 1476 1476 1476 1476 1476 1476 1476 1476 1475 1475 1476 1476 1475 1473 1471 1470 1471 1471 1471 1471
1466 1467 1468 1468 1469 1469 1470 1470 1470 1470 1471 1471 1471 1471 1471 1471 1471 1471 1471 1472 1472 1472 1472 1472 1472 1472 1472 1472 1472 1472 1472 1472 1471 1472 1472 1473 1471 1471 1467 1466 1467 1467 1466
1464 1465 1466 1466 1467 1467 1467 1467 1467 1467 1467 1467 1468 1468 1468 1468 1468 1467 1467 1468 1468 1468 1468 1468 1468 1468 1468 1468 1468 1468 1468 1468 1468 1467 1467 1467 1467 1467 1466 1462 1461 1461 1461
1463 1464 1464 1464 1464 1464 1464 1464 1463 1463 1463 1464 1464 1464 1464 1464 1465 1464 1463 1464 1464 1464 1464 1464 1464 1464 1464 1464 1464 1464 1464 1464 1464 1463 1463 1463 1463 1462 1462 1460 1457 1456 1455
1461 1461 1462 1462 1462 1462 1462 1461 1461 1460 1460 1460 1460 1461 1461 1461 1461 1460 1460 1460 1460 1460 1460 1460 1460 1460 1460 1460 1460 1460 1460 1460 1459 1459 1459 1459 1459 1459 1458 1457 1454 1452 1451
1459 1460 1459 1459 1459 1459 1459 1459 1458 1457 1457 1457 1457 1457 1457 1457 1457 1457 1456 1456 1456 1456 1456 1456 1456 1455 1455 1455 1455 1455 1455 1455 1455 1455 1455 1454 1454 1455 1454 1454 1452 1449 1447
1458 1458 1458 1457 1457 1457 1457 1456 1455 1455 1454 1454 1454 1454 1453 1453 1453 1453 1453 1452 1452 1452 1452 1452 1451 1451 1451 1451 1450 1450 1450 1450 1450 1450 1450 1450 1450 1450 1449 1449 1449 1448 1443
1456 1456 1455 1455 1455 1454 1454 1454 1453 1452 1452 1451 1451 1450 1450 1450 1450 1450 1449 1449 1448 1448 1448 1447 1447 1446 1446 1446 1446 1446 1446 1446 1446 1446 1446 1445 1445 1445 1444 1444 1444 1443 1441
1454 1454 1453 1453 1453 1453 1452 1452 1451 1450 1449 1448 1448 1447 1446 1446 1446 1446 1445 1445 1444 1444 1444 1443 1443 1442 1442 1442 1442 1442 1441 1441 1441 1441 1441 1441 1441 1440 1440 1439 1439 1438 1437
1452 1452 1451 1451 1451 1450 1449 1449 1448 1447 1446 1445 1445 1443 1443 1443 1443 1442 1442 1441 1440 1440 1440 1439 1439 1438 1438 1438 1438 1437 1437 1437 1437 1437 1436 1436 1436 1435 1435 1435 1434 1433 1432
1450 1450 1449 1449 1448 1447 1447 1446 1445 1444 1443 1442 1441 1440 1440 1439 1439 1438 1438 1437 1437 1436 1436 1435 1435 1434 1434 1434 1434 1434 1433 1433 1433 1433 1433 1432 1432 1431 1431 1430 1429 1428 1427
1448 1447 1447 1446 1446 1445 1444 1443 1442 1441 1440 1439 1438 1438 1437 1436 1436 1435 1434 1434 1433 1433 1432 1432 1431 1431 1431 1431 1431 1430 1430 1429 1429 1429 1429 1428 1428 1427 1427 1426 1425 1424 1423
1446 1445 1444 1444 1444 1443 1442 1441 1439 1438 1437 1436 1435 1435 1434 1433 1432 1431 1431 1430 1430 1430 1429 1429 1428 1428 1427 1427 1427 1427 1426 1425 1425 1425 1425 1424 1424 1423 1423 1422 1421 1420 1419
1443 1442 1442 1441 1441 1440 1439 1438 1437 1435 1434 1433 1432 1432 1431 1430 1429 1428 1428 1427 1427 1427 1426 1426 1425 1424 1424 1424 1424 1424 1423 1422 1422 1421 1421 1421 1420 1419 1419 1419 1418 1417 1416
1440 1440 1439 1438 1438 1437 1436 1435 1434 1433 1431 1430 1429 1429 1428 1427 1426 1426 1425 1425 1424 1424 1423 1423 1422 1421 1421 1421 1421 1420 1419 1419 1418 1418 1418 1417 1416 1416 1415 1414 1414 1413 1412
1437 1437 1436 1435 1435 1434 1433 1432 1431 1430 1429 1427 1427 1426 1425 1425 1424 1423 1423 1423 1422 1421 1421 1420 1419 1418 1418 1418 1418 1417 1416 1415 1415 1415 1414 1413 1413 1412 1412 1411 1409 1408 1408
1434 1433 1433 1432 1431 1430 1430 1429 1428 1427 1426 1425 1424 1423 1423 1422 1421 1421 1421 1420 1419 1419 1418 1417 1416 1416 1416 1416 1415 1414 1413 1412 1412 1411 1411 1410 1409 1409 1408 1407 1406 1404 1404
1431 1430 1429 1428 1428 1427 1427 1426 1425 1424 1423 1423 1422 1421 1421 1420 1419 1419 1418 1418 1417 1417 1416 1415 1414 1414 1413 1413 1412 1412 1411 1409 1409 1408 1407 1407 1406 1405 1405 1404 1403 1401 1400
1427 1426 1425 1424 1424 1424 1423 1423 1422 1421 1421 1420 1420 1419 1419 1418 1418 1417 1417 1416 1415 1415 1414 1413 1412 1412 1411 1410 1410 1410 1409 1407 1406 1405 1404 1403 1403 1402 1402 1401 1400 1399 1398
1423 1423 1422 1421 1421 1420 1420 1419 1419 1419 1419 1418 1418 1417 1417 1416 1416 1415 1415 1414 1414 1413 1412 1411 1410 1409 1409 1408 1407 1407 1406 1405 1404 1402 1401 1400 1400 1399 1399 1398 1397 1396 1396
1420 1419 1418 1418 1418 1417 1417 1417 1417 1417 1416 1416 1416 1415 1415 1415 1414 1414 1413 1412 1412 1411 1410 1409 1408 1407 1407 1406 1405 1404 1404 1403 1401 1400 1399 1398 1398 1397 1396 1395 1394 1394 1393
1416 1416 1415 1415 1414 1414 1414 1414 1414 1414 1414 1414 1414 1414 1413 1413 1413 1412 1412 1411 1410 1409 1409 1408 1406 1405 1405 1404 1403 1402 1401 1400 1399 1398 1397 1396 1395 1394 1393 1393 1392 1391 1391
1413 1413 1412 1412 1412 1412 1412 1412 1412 1412 1412 1412 1412 1412 1412 1411 1411 1411 1410 1409 1409 1408 1408 1406 1405 1404 1402 1402 1401 1400 1399 1397 1396 1395 1394 1393 1393 1392 1391 1390 1390 1389 1389
1410 1409 1409 1409 1409 1409 1409 1410 1410 1410 1410 1410 1410 1410 1410 1410 1409 1409 1408 1408 1407 1407 1406 1405 1404 1402 1401 1400 1399 1398 1397 1396 1395 1393 1392 1391 1390 1389 1389 1388 1388 1387 1387